QPF
0.00 0.00 0.00 0.00 0.00 0.00 0.00 0.00 0.00 0.00 0.00 0.00 0.00 0.00 0.00 0.00 0.00 0.00 0.00 0.00 0.00 0.00 0.00 0.00 0.00 0.00 0.00 0.00 0.00 0.00 0.00 0.00 0.00 0.00 0.00 0.00 0.00 0.00 0.00 0.00 0.00 0.00 0.00 0.00
0.00 0.00 0.00 0.00 0.00 0.00 0.00 0.00 0.00 0.00 0.00 0.00 0.00 0.00 0.00 0.00 0.00 0.00 0.00 0.00 0.00 0.00 0.00 0.00 0.00 0.00 0.00 0.00 0.00 0.00 0.00 0.00 0.00 0.00 0.00 0.00 0.00 0.00 0.00 0.00 0.00 0.00 0.00 0.00
0.00 0.00 0.00 0.00 0.00 0.00 0.00 0.00 0.00 0.00 0.00 0.00 0.00 0.00 0.00 0.00 0.00 0.00 0.00 0.00 0.00 0.00 0.00 0.00 0.00 0.00 0.00 0.00 0.00 0.00 0.00 0.00 0.00 0.00 0.00 0.00 0.00 0.00 0.00 0.00 0.00 0.00 0.00 0.00
0.00 0.00 0.00 0.00 0.00 0.00 0.00 0.00 0.00 0.00 0.00 0.00 0.00 0.00 0.00 0.00 0.00 0.00 0.00 0.00 0.00 0.00 0.00 0.00 0.00 0.00 0.00 0.00 0.00 0.00 0.00 0.00 0.00 0.00 0.00 0.00 0.00 0.00 0.00 0.00 0.00 0.00 0.00 0.00
0.00 0.00 0.00 0.00 0.00 0.00 0.00 0.00 0.00 0.00 0.00 0.00 0.00 0.00 0.00 0.00 0.00 0.00 0.00 0.00 0.00 0.00 0.00 0.00 0.00 0.00 0.00 0.00 0.00 0.00 0.00 0.00 0.00 0.00 0.00 0.00 0.00 0.00 0.00 0.00 0.00 0.00 0.00 0.00
0.00 0.00 0.00 0.00 0.00 0.00 0.00 0.00 0.00 0.00 0.00 0.00 0.00 0.00 0.00 0.00 0.00 0.00 0.00 0.00 0.00 0.00 0.00 0.00 0.00 0.00 0.00 0.00 0.00 0.00 0.00 0.00 0.00 0.00 0.00 0.00 0.00 0.00 0.00 0.00 0.00 0.00 0.00 0.00
0.00 0.00 0.00 0.00 0.00 0.00 0.00 0.00 0.00 0.00 0.00 0.00 0.00 0.00 0.00 0.00 0.00 0.00 0.00 0.00 0.00 0.00 0.00 0.00 0.00 0.00 0.00 0.00 0.00 0.00 0.00 0.00 0.00 0.00 0.00 0.00 0.00 0.00 0.00 0.00 0.00 0.00 0.00 0.00
0.00 0.00 0.00 0.00 0.00 0.00 0.00 0.00 0.00 0.00 0.00 0.00 0.00 0.00 0.00 0.00 0.00 0.00 0.00 0.00 0.00 0.00 0.00 0.00 0.00 0.00 0.00 0.00 0.00 0.00 0.00 0.00 0.00 0.00 0.00 0.00 0.00 0.00 0.00 0.00 0.00 0.00 0.00 0.00
0.00 0.00 0.00 0.00 0.00 0.00 0.00 0.00 0.00 0.00 0.00 0.00 0.00 0.00 0.00 0.00 0.00 0.00 0.00 0.00 0.00 0.00 0.00 0.00 0.00 0.00 0.00 0.00 0.00 0.00 0.00 0.00 0.00 0.00 0.00 0.00 0.00 0.00 0.00 0.00 0.00 0.00 0.00 0.00
0.00 0.00 0.00 0.00 0.00 0.00 0.00 0.00 0.00 0.00 0.00 0.00 0.00 0.00 0.00 0.00 0.00 0.00 0.00 0.00 0.00 0.00 0.00 0.00 0.00 0.00 0.00 0.00 0.00 0.00 0.00 0.00 0.00 0.00 0.00 0.00 0.00 0.00 0.00 0.00 0.00 0.00 0.01 0.01
0.00 0.00 0.00 0.00 0.00 0.00 0.00 0.00 0.00 0.00 0.00 0.00 0.00 0.00 0.00 0.00 0.00 0.00 0.00 0.00 0.00 0.00 0.00 0.00 0.00 0.00 0.00 0.00 0.00 0.00 0.00 0.00 0.00 0.00 0.00 0.00 0.00 0.00 0.00 0.00 0.00 0.01 0.02 0.01
0.00 0.00 0.00 0.00 0.00 0.00 0.00 0.00 0.00 0.00 0.00 0.00 0.00 0.00 0.00 0.00 0.00 0.00 0.00 0.00 0.00 0.00 0.00 0.00 0.00 0.00 0.00 0.00 0.00 0.00 0.00 0.00 0.00 0.00 0.00 0.00 0.00 0.00 0.01 0.01 0.01 0.01 0.03 0.04
0.00 0.00 0.00 0.00 0.00 0.00 0.00 0.00 0.00 0.00 0.00 0.00 0.00 0.00 0.00 0.00 0.00 0.00 0.00 0.00 0.00 0.00 0.00 0.00 0.00 0.00 0.00 0.00 0.00 0.00 0.00 0.00 0.00 0.00 0.00 0.00 0.00 0.01 0.02 0.02 0.02 0.03 0.05 0.08
0.00 0.00 0.00 0.00 0.00 0.00 0.00 0.00 0.00 0.00 0.00 0.00 0.00 0.00 0.00 0.00 0.00 0.00 0.00 0.00 0.00 0.00 0.00 0.00 0.00 0.00 0.00 0.00 0.00 0.00 0.00 0.00 0.00 0.00 0.00 0.00 0.00 0.01 0.02 0.02 0.03 0.05 0.11 0.17
0.00 0.00 0.00 0.00 0.00 0.00 0.00 0.00 0.00 0.00 0.00 0.00 0.00 0.00 0.00 0.00 0.00 0.00 0.00 0.00 0.00 0.00 0.00 0.00 0.00 0.01 0.01 0.00 0.00 0.00 0.00 0.00 0.00 0.00 0.00 0.00 0.00 0.01 0.01 0.02 0.05 0.08 0.15 0.23
0.00 0.00 0.00 0.00 0.00 0.00 0.00 0.00 0.00 0.00 0.00 0.00 0.00 0.00 0.00 0.00 0.00 0.00 0.00 0.00 0.00 0.00 0.00 0.00 0.00 0.01 0.01 0.00 0.00 0.00 0.00 0.00 0.00 0.00 0.00 0.00 0.00 0.01 0.01 0.02 0.05 0.07 0.10 0.16
0.00 0.00 0.00 0.00 0.00 0.00 0.00 0.00 0.00 0.00 0.00 0.00 0.00 0.00 0.00 0.00 0.00 0.00 0.00 0.00 0.00 0.00 0.00 0.01 0.01 0.01 0.01 0.00 0.00 0.00 0.00 0.00 0.00 0.00 0.00 0.00 0.00 0.00 0.01 0.01 0.03 0.05 0.08 0.10
0.00 0.00 0.00 0.00 0.00 0.00 0.00 0.00 0.00 0.00 0.00 0.00 0.00 0.00 0.00 0.00 0.00 0.00 0.00 0.00 0.01 0.01 0.01 0.01 0.01 0.01 0.00 0.00 0.00 0.00 0.00 0.00 0.00 0.00 0.00 0.00 0.00 0.00 0.00 0.00 0.01 0.03 0.06 0.08
0.00 0.00 0.00 0.00 0.00 0.00 0.00 0.00 0.00 0.00 0.00 0.00 0.00 0.00 0.00 0.00 0.00 0.00 0.00 0.00 0.01 0.01 0.01 0.01 0.01 0.00 0.00 0.00 0.00 0.00 0.00 0.00 0.00 0.00 0.00 0.00 0.00 0.00 0.00 0.00 0.00 0.01 0.03 0.06
0.00 0.00 0.00 0.00 0.00 0.00 0.00 0.00 0.00 0.00 0.00 0.00 0.00 0.00 0.00 0.00 0.01 0.01 0.01 0.00 0.00 0.00 0.00 0.00 0.00 0.00 0.00 0.00 0.00 0.00 0.00 0.00 0.00 0.00 0.00 0.00 0.00 0.00 0.00 0.00 0.00 0.00 0.00 0.02
0.00 0.00 0.00 0.00 0.00 0.00 0.00 0.00 0.00 0.00 0.00 0.00 0.00 0.00 0.00 0.01 0.03 0.02 0.01 0.00 0.00 0.00 0.00 0.00 0.00 0.00 0.00 0.00 0.00 0.00 0.00 0.00 0.00 0.00 0.00 0.00 0.00 0.00 0.00 0.00 0.00 0.00 0.00 0.00
0.00 0.00 0.00 0.00 0.00 0.00 0.00 0.00 0.00 0.00 0.00 0.00 0.00 0.00 0.00 0.01 0.01 0.00 0.00 0.00 0.00 0.00 0.00 0.00 0.00 0.00 0.00 0.00 0.00 0.00 0.00 0.00 0.00 0.00 0.00 0.00 0.00 0.00 0.00 0.00 0.00 0.00 0.00 0.00
0.00 0.00 0.00 0.00 0.00 0.00 0.00 0.00 0.00 0.00 0.00 0.00 0.00 0.00 0.01 0.01 0.00 0.00 0.00 0.00 0.00 0.00 0.00 0.00 0.00 0.00 0.00 0.00 0.00 0.00 0.00 0.00 0.00 0.00 0.00 0.00 0.00 0.00 0.00 0.00 0.00 0.00 0.00 0.00
0.00 0.00 0.00 0.00 0.00 0.00 0.00 0.00 0.00 0.00 0.00 0.00 0.00 0.00 0.01 0.01 0.00 0.00 0.00 0.00 0.00 0.00 0.00 0.00 0.00 0.00 0.00 0.00 0.00 0.00 0.00 0.00 0.00 0.00 0.00 0.00 0.00 0.00 0.00 0.00 0.00 0.00 0.00 0.02
0.00 0.00 0.00 0.00 0.00 0.00 0.00 0.00 0.00 0.00 0.00 0.00 0.00 0.00 0.00 0.00 0.00 0.00 0.00 0.00 0.00 0.00 0.00 0.00 0.00 0.00 0.00 0.00 0.00 0.00 0.00 0.00 0.00 0.00 0.00 0.00 0.00 0.00 0.00 0.00 0.00 0.00 0.00 0.02
0.00 0.00 0.00 0.00 0.00 0.00 0.00 0.00 0.00 0.00 0.00 0.00 0.00 0.00 0.00 0.00 0.00 0.00 0.00 0.00 0.00 0.00 0.00 0.00 0.00 0.00 0.00 0.00 0.00 0.00 0.00 0.00 0.00 0.00 0.00 0.00 0.00 0.00 0.00 0.00 0.00 0.00 0.00 0.00
MSLP
1018.97 1019.76 1020.39 1020.78 1020.93 1020.88 1020.71 1020.52 1020.44 1020.55 1020.91 1021.53 1022.34 1023.25 1024.15 1024.92 1025.48 1025.77 1025.79 1025.56 1025.16 1024.66 1024.12 1023.61 1023.13 1022.70 1022.28 1021.83 1021.35 1020.81 1020.22 1019.60 1019.00 1018.43 1017.91 1017.44 1017.00 1016.55 1016.04 1015.46 1014.79 1014.04 1013.24 1012.46
1020.02 1020.74 1021.27 1021.56 1021.61 1021.49 1021.27 1021.08 1021.02 1021.17 1021.57 1022.22 1023.05 1023.98 1024.88 1025.66 1026.22 1026.52 1026.56 1026.37 1026.01 1025.53 1025.00 1024.47 1023.95 1023.44 1022.93 1022.39 1021.82 1021.20 1020.56 1019.93 1019.32 1018.77 1018.28 1017.83 1017.41 1016.96 1016.44 1015.83 1015.12 1014.32 1013.47 1012.62
1021.05 1021.64 1022.02 1022.18 1022.12 1021.92 1021.67 1021.48 1021.46 1021.67 1022.13 1022.83 1023.70 1024.65 1025.57 1026.35 1026.92 1027.25 1027.32 1027.18 1026.85 1026.41 1025.90 1025.35 1024.80 1024.22 1023.62 1022.99 1022.33 1021.64 1020.95 1020.28 1019.67 1019.12 1018.64 1018.21 1017.79 1017.35 1016.83 1016.22 1015.49 1014.66 1013.77 1012.87
1022.06 1022.47 1022.67 1022.67 1022.49 1022.21 1021.94 1021.78 1021.81 1022.09 1022.64 1023.40 1024.32 1025.30 1026.24 1027.03 1027.61 1027.95 1028.04 1027.93 1027.64 1027.22 1026.72 1026.18 1025.59 1024.97 1024.31 1023.61 1022.88 1022.13 1021.40 1020.70 1020.07 1019.51 1019.03 1018.61 1018.20 1017.76 1017.25 1016.63 1015.89 1015.05 1014.13 1013.17
1023.04 1023.25 1023.26 1023.08 1022.78 1022.44 1022.17 1022.05 1022.16 1022.54 1023.17 1024.01 1024.99 1025.99 1026.93 1027.70 1028.27 1028.60 1028.69 1028.58 1028.31 1027.91 1027.42 1026.88 1026.28 1025.64 1024.95 1024.21 1023.44 1022.66 1021.90 1021.18 1020.54 1019.98 1019.50 1019.07 1018.65 1018.21 1017.69 1017.06 1016.31 1015.44 1014.49 1013.48
1024.01 1024.00 1023.82 1023.48 1023.08 1022.70 1022.44 1022.38 1022.59 1023.07 1023.80 1024.71 1025.72 1026.74 1027.65 1028.39 1028.91 1029.19 1029.25 1029.12 1028.83 1028.44 1027.96 1027.42 1026.83 1026.19 1025.50 1024.76 1023.99 1023.21 1022.45 1021.73 1021.08 1020.52 1020.02 1019.57 1019.13 1018.67 1018.12 1017.47 1016.69 1015.79 1014.79 1013.73
1024.94 1024.75 1024.39 1023.93 1023.45 1023.06 1022.84 1022.86 1023.16 1023.75 1024.56 1025.52 1026.55 1027.54 1028.41 1029.07 1029.51 1029.72 1029.71 1029.53 1029.22 1028.81 1028.33 1027.81 1027.24 1026.63 1025.97 1025.26 1024.52 1023.77 1023.03 1022.33 1021.68 1021.10 1020.59 1020.10 1019.63 1019.11 1018.51 1017.81 1016.98 1016.02 1014.97 1013.84
1025.81 1025.47 1024.99 1024.45 1023.94 1023.56 1023.40 1023.51 1023.91 1024.58 1025.45 1026.44 1027.45 1028.39 1029.17 1029.73 1030.07 1030.17 1030.08 1029.84 1029.48 1029.05 1028.58 1028.08 1027.55 1026.98 1026.37 1025.72 1025.04 1024.33 1023.63 1022.95 1022.31 1021.72 1021.16 1020.63 1020.09 1019.49 1018.82 1018.03 1017.13 1016.10 1014.98 1013.79
1026.56 1026.14 1025.61 1025.05 1024.56 1024.23 1024.15 1024.34 1024.83 1025.55 1026.44 1027.42 1028.38 1029.23 1029.89 1030.34 1030.55 1030.55 1030.37 1030.06 1029.67 1029.23 1028.78 1028.31 1027.82 1027.31 1026.77 1026.19 1025.57 1024.92 1024.25 1023.59 1022.95 1022.33 1021.73 1021.12 1020.49 1019.80 1019.02 1018.14 1017.13 1016.02 1014.82 1013.57
1027.18 1026.75 1026.23 1025.72 1025.30 1025.06 1025.06 1025.33 1025.87 1026.61 1027.49 1028.41 1029.27 1030.00 1030.54 1030.85 1030.94 1030.84 1030.59 1030.24 1029.84 1029.41 1028.99 1028.56 1028.14 1027.70 1027.22 1026.70 1026.14 1025.54 1024.90 1024.25 1023.59 1022.93 1022.26 1021.57 1020.84 1020.03 1019.13 1018.14 1017.03 1015.83 1014.56 1013.26
1027.66 1027.29 1026.86 1026.45 1026.14 1026.01 1026.10 1026.43 1026.99 1027.71 1028.52 1029.34 1030.07 1030.66 1031.06 1031.25 1031.24 1031.07 1030.79 1030.43 1030.05 1029.66 1029.29 1028.93 1028.57 1028.19 1027.77 1027.31 1026.78 1026.21 1025.58 1024.92 1024.23 1023.52 1022.77 1021.98 1021.13 1020.21 1019.20 1018.09 1016.90 1015.63 1014.31 1012.98
1028.03 1027.79 1027.50 1027.23 1027.06 1027.04 1027.21 1027.58 1028.12 1028.77 1029.48 1030.16 1030.74 1031.18 1031.45 1031.53 1031.46 1031.26 1030.97 1030.65 1030.32 1030.01 1029.71 1029.42 1029.13 1028.81 1028.44 1028.01 1027.51 1026.93 1026.30 1025.61 1024.87 1024.08 1023.26 1022.37 1021.43 1020.40 1019.29 1018.10 1016.84 1015.53 1014.19 1012.87
1028.37 1028.30 1028.18 1028.08 1028.05 1028.14 1028.36 1028.73 1029.21 1029.76 1030.32 1030.84 1031.26 1031.55 1031.70 1031.71 1031.60 1031.41 1031.17 1030.92 1030.68 1030.46 1030.26 1030.05 1029.83 1029.55 1029.21 1028.79 1028.29 1027.70 1027.03 1026.29 1025.50 1024.65 1023.75 1022.78 1021.76 1020.66 1019.49 1018.25 1016.96 1015.64 1014.32 1013.04
1028.78 1028.88 1028.94 1029.00 1029.09 1029.26 1029.50 1029.83 1030.22 1030.63 1031.03 1031.37 1031.63 1031.79 1031.84 1031.80 1031.69 1031.54 1031.39 1031.24 1031.11 1031.00 1030.90 1030.77 1030.60 1030.36 1030.04 1029.61 1029.08 1028.46 1027.75 1026.96 1026.11 1025.21 1024.25 1023.23 1022.16 1021.02 1019.83 1018.58 1017.31 1016.02 1014.75 1013.55
1029.33 1029.59 1029.80 1029.98 1030.16 1030.36 1030.59 1030.84 1031.11 1031.36 1031.59 1031.76 1031.87 1031.92 1031.90 1031.84 1031.76 1031.69 1031.63 1031.60 1031.59 1031.59 1031.58 1031.52 1031.40 1031.18 1030.85 1030.41 1029.85 1029.19 1028.43 1027.60 1026.71 1025.76 1024.77 1023.73 1022.64 1021.51 1020.33 1019.12 1017.89 1016.67 1015.49 1014.38
1030.05 1030.43 1030.74 1030.99 1031.21 1031.40 1031.57 1031.72 1031.84 1031.94 1032.01 1032.03 1032.02 1031.99 1031.93 1031.89 1031.86 1031.87 1031.92 1032.00 1032.10 1032.19 1032.25 1032.24 1032.14 1031.93 1031.59 1031.12 1030.53 1029.83 1029.04 1028.17 1027.26 1026.29 1025.30 1024.26 1023.20 1022.10 1020.97 1019.83 1018.67 1017.54 1016.45 1015.44
1030.94 1031.37 1031.72 1031.99 1032.18 1032.31 1032.38 1032.41 1032.40 1032.35 1032.28 1032.20 1032.11 1032.04 1031.99 1031.98 1032.01 1032.11 1032.24 1032.42 1032.59 1032.75 1032.85 1032.87 1032.78 1032.55 1032.19 1031.70 1031.08 1030.36 1029.55 1028.67 1027.75 1026.80 1025.81 1024.81 1023.79 1022.75 1021.69 1020.62 1019.56 1018.52 1017.53 1016.61
1031.90 1032.34 1032.66 1032.87 1032.99 1033.02 1032.97 1032.88 1032.74 1032.59 1032.44 1032.29 1032.18 1032.11 1032.10 1032.15 1032.26 1032.42 1032.63 1032.86 1033.08 1033.26 1033.37 1033.39 1033.28 1033.03 1032.65 1032.14 1031.51 1030.77 1029.96 1029.09 1028.18 1027.25 1026.30 1025.34 1024.38 1023.40 1022.41 1021.43 1020.45 1019.50 1018.58 1017.73
1032.82 1033.19 1033.43 1033.54 1033.55 1033.45 1033.30 1033.09 1032.88 1032.67 1032.48 1032.34 1032.26 1032.25 1032.30 1032.42 1032.60 1032.83 1033.08 1033.33 1033.55 1033.72 1033.81 1033.79 1033.65 1033.37 1032.97 1032.45 1031.81 1031.08 1030.29 1029.44 1028.56 1027.66 1026.75 1025.84 1024.92 1024.00 1023.09 1022.17 1021.26 1020.37 1019.52 1018.71
1033.55 1033.81 1033.93 1033.92 1033.80 1033.59 1033.33 1033.06 1032.81 1032.60 1032.45 1032.38 1032.38 1032.46 1032.61 1032.82 1033.07 1033.33 1033.59 1033.83 1034.03 1034.15 1034.18 1034.11 1033.92 1033.61 1033.19 1032.66 1032.04 1031.33 1030.56 1029.74 1028.89 1028.03 1027.15 1026.28 1025.41 1024.54 1023.67 1022.80 1021.95 1021.10 1020.28 1019.49
1033.99 1034.13 1034.11 1033.97 1033.72 1033.42 1033.11 1032.82 1032.59 1032.44 1032.39 1032.43 1032.56 1032.77 1033.03 1033.33 1033.63 1033.92 1034.17 1034.37 1034.50 1034.55 1034.51 1034.37 1034.13 1033.79 1033.35 1032.82 1032.21 1031.53 1030.79 1030.00 1029.19 1028.35 1027.51 1026.66 1025.82 1024.98 1024.15 1023.32 1022.50 1021.68 1020.88 1020.10
1034.08 1034.09 1033.95 1033.69 1033.36 1033.01 1032.68 1032.43 1032.28 1032.24 1032.33 1032.53 1032.82 1033.17 1033.55 1033.93 1034.28 1034.57 1034.79 1034.93 1034.98 1034.95 1034.82 1034.61 1034.31 1033.94 1033.49 1032.96 1032.37 1031.71 1031.00 1030.24 1029.45 1028.64 1027.82 1026.99 1026.17 1025.36 1024.55 1023.75 1022.96 1022.16 1021.37 1020.60
1033.85 1033.75 1033.50 1033.16 1032.79 1032.44 1032.15 1031.98 1031.96 1032.08 1032.34 1032.71 1033.17 1033.66 1034.15 1034.60 1034.97 1035.25 1035.43 1035.49 1035.46 1035.33 1035.12 1034.83 1034.48 1034.08 1033.61 1033.09 1032.51 1031.87 1031.18 1030.44 1029.67 1028.88 1028.07 1027.26 1026.46 1025.67 1024.89 1024.12 1023.36 1022.59 1021.83 1021.07
1033.38 1033.18 1032.87 1032.50 1032.13 1031.83 1031.63 1031.59 1031.72 1032.01 1032.45 1033.00 1033.61 1034.23 1034.81 1035.30 1035.68 1035.93 1036.05 1036.03 1035.91 1035.69 1035.40 1035.04 1034.65 1034.21 1033.73 1033.20 1032.62 1032.00 1031.32 1030.59 1029.83 1029.04 1028.25 1027.45 1026.67 1025.91 1025.17 1024.45 1023.74 1023.02 1022.30 1021.56
1032.76 1032.51 1032.17 1031.82 1031.51 1031.30 1031.23 1031.34 1031.64 1032.10 1032.71 1033.41 1034.14 1034.85 1035.49 1036.00 1036.36 1036.57 1036.62 1036.52 1036.31 1036.01 1035.65 1035.23 1034.79 1034.31 1033.81 1033.27 1032.69 1032.06 1031.38 1030.65 1029.89 1029.11 1028.32 1027.55 1026.80 1026.09 1025.40 1024.74 1024.09 1023.44 1022.78 1022.10
1032.13 1031.86 1031.55 1031.26 1031.04 1030.96 1031.04 1031.31 1031.77 1032.39 1033.13 1033.94 1034.75 1035.51 1036.16 1036.66 1036.98 1037.13 1037.11 1036.94 1036.66 1036.28 1035.85 1035.38 1034.89 1034.38 1033.84 1033.28 1032.68 1032.02 1031.33 1030.59 1029.82 1029.04 1028.27 1027.52 1026.81 1026.15 1025.52 1024.94 1024.37 1023.81 1023.23 1022.62
Thickness
5680 5667 5655 5659 5662 5664 5660 5655 5650 5656 5659 5649 5623 5606 5597 5594 5590 5581 5574 5568 5564 5560 5559 5559 5558 5556 5556 5555 5553 5553 5552 5552 5552 5551 5549 5551 5551 5550 5551 5552 5554 5558 5564 5570
5665 5657 5662 5666 5662 5658 5655 5649 5642 5643 5645 5635 5606 5596 5589 5585 5577 5567 5558 5550 5546 5545 5544 5544 5541 5537 5533 5531 5529 5528 5526 5526 5527 5528 5527 5528 5528 5528 5530 5533 5536 5538 5542 5549
5655 5656 5663 5658 5650 5646 5646 5643 5638 5633 5632 5628 5601 5589 5580 5571 5560 5552 5540 5534 5528 5528 5524 5522 5519 5513 5509 5506 5502 5501 5499 5500 5501 5503 5503 5506 5507 5507 5508 5512 5516 5520 5523 5529
5652 5654 5654 5650 5645 5640 5634 5644 5638 5630 5619 5609 5609 5574 5565 5554 5539 5529 5517 5511 5507 5503 5500 5497 5492 5487 5482 5478 5475 5473 5472 5473 5474 5475 5475 5475 5477 5477 5478 5481 5487 5493 5499 5505
5647 5649 5644 5640 5638 5638 5636 5640 5632 5626 5613 5603 5598 5569 5545 5541 5521 5506 5497 5491 5486 5482 5476 5471 5464 5458 5454 5450 5448 5446 5446 5446 5446 5446 5445 5445 5444 5444 5446 5450 5457 5464 5472 5479
5647 5650 5643 5636 5637 5636 5633 5630 5629 5616 5603 5596 5593 5562 5522 5513 5500 5491 5481 5473 5466 5461 5455 5447 5439 5433 5428 5424 5420 5419 5420 5419 5418 5418 5416 5414 5413 5414 5417 5420 5426 5434 5443 5451
5628 5635 5634 5633 5628 5628 5618 5609 5600 5595 5583 5584 5572 5537 5509 5500 5490 5478 5465 5453 5445 5439 5432 5424 5415 5408 5403 5400 5396 5395 5395 5395 5393 5392 5389 5388 5388 5389 5391 5393 5397 5403 5412 5421
5610 5614 5622 5623 5619 5612 5603 5596 5577 5569 5562 5560 5555 5512 5494 5488 5476 5462 5448 5435 5428 5420 5410 5399 5390 5383 5379 5375 5372 5372 5372 5372 5370 5369 5369 5369 5370 5370 5370 5371 5373 5377 5383 5392
5602 5604 5614 5616 5614 5607 5598 5583 5577 5559 5549 5536 5533 5505 5478 5473 5456 5443 5429 5420 5409 5399 5387 5377 5370 5362 5355 5351 5348 5347 5349 5349 5348 5349 5351 5354 5354 5354 5354 5355 5356 5358 5361 5368
5605 5597 5604 5604 5608 5599 5590 5576 5553 5547 5533 5525 5519 5489 5460 5446 5433 5423 5412 5402 5390 5379 5369 5360 5352 5343 5336 5332 5328 5326 5327 5326 5328 5331 5335 5338 5339 5340 5342 5345 5348 5349 5351 5354
5598 5593 5591 5591 5587 5580 5576 5564 5546 5527 5509 5487 5475 5463 5454 5430 5415 5401 5389 5380 5367 5359 5351 5342 5334 5326 5321 5315 5311 5312 5313 5314 5316 5318 5321 5324 5327 5330 5334 5337 5340 5341 5342 5346
5580 5576 5572 5577 5581 5576 5566 5546 5528 5507 5490 5470 5445 5439 5432 5415 5401 5386 5372 5363 5351 5343 5334 5326 5320 5314 5309 5304 5302 5302 5303 5304 5305 5307 5311 5314 5318 5322 5326 5330 5331 5332 5334 5339
5577 5571 5568 5574 5568 5553 5541 5532 5522 5499 5474 5455 5438 5431 5417 5400 5391 5382 5369 5353 5340 5333 5327 5320 5314 5307 5301 5295 5293 5292 5294 5294 5296 5298 5301 5305 5308 5311 5316 5319 5321 5322 5325 5330
5570 5559 5560 5560 5552 5530 5521 5514 5510 5491 5456 5436 5425 5410 5402 5388 5379 5373 5362 5343 5330 5325 5320 5313 5306 5298 5292 5286 5283 5283 5284 5284 5286 5289 5291 5293 5296 5298 5302 5306 5309 5311 5313 5317
5558 5548 5548 5539 5529 5522 5514 5501 5490 5472 5449 5423 5406 5391 5384 5370 5359 5352 5340 5330 5324 5319 5312 5303 5295 5288 5283 5278 5275 5275 5275 5276 5277 5279 5280 5282 5284 5287 5290 5293 5297 5300 5302 5304
5547 5538 5530 5523 5519 5506 5496 5482 5469 5453 5437 5417 5398 5386 5380 5364 5356 5349 5332 5324 5316 5309 5301 5292 5284 5278 5274 5269 5266 5265 5266 5266 5267 5268 5269 5271 5273 5275 5278 5282 5285 5288 5291 5293
5532 5526 5517 5498 5492 5493 5470 5463 5454 5441 5426 5406 5384 5375 5366 5355 5351 5339 5325 5315 5306 5299 5290 5281 5273 5266 5263 5258 5255 5254 5254 5254 5255 5255 5256 5258 5259 5261 5264 5268 5272 5275 5278 5282
5526 5514 5496 5480 5474 5469 5461 5460 5448 5429 5415 5400 5383 5370 5357 5345 5339 5327 5313 5303 5296 5289 5281 5272 5264 5258 5253 5248 5245 5243 5241 5241 5241 5241 5241 5243 5244 5246 5249 5252 5256 5260 5265 5269
5521 5509 5484 5457 5452 5444 5454 5451 5437 5418 5403 5393 5375 5364 5352 5340 5333 5318 5305 5296 5288 5281 5272 5262 5254 5248 5243 5237 5234 5231 5229 5227 5226 5226 5226 5226 5228 5230 5232 5234 5238 5243 5249 5254
5508 5492 5467 5449 5448 5442 5448 5445 5431 5411 5388 5383 5368 5352 5338 5331 5330 5317 5301 5290 5282 5274 5263 5254 5246 5238 5232 5226 5222 5218 5215 5212 5211 5210 5209 5210 5211 5213 5215 5217 5220 5224 5230 5235
5501 5482 5460 5440 5425 5431 5441 5436 5420 5390 5381 5380 5363 5344 5329 5318 5312 5304 5293 5283 5274 5264 5254 5245 5235 5226 5218 5213 5209 5204 5199 5195 5193 5192 5192 5193 5194 5196 5198 5199 5202 5205 5210 5215
5493 5469 5456 5432 5419 5421 5437 5428 5409 5395 5386 5371 5354 5337 5324 5315 5306 5295 5285 5275 5266 5255 5245 5235 5225 5215 5206 5199 5194 5188 5182 5178 5175 5173 5171 5171 5174 5176 5177 5179 5183 5186 5190 5195
5486 5477 5458 5448 5441 5440 5433 5424 5411 5394 5378 5361 5341 5329 5318 5307 5295 5287 5277 5266 5254 5244 5234 5224 5213 5203 5194 5185 5178 5172 5167 5162 5158 5154 5151 5149 5149 5150 5152 5156 5160 5166 5170 5175
5485 5473 5457 5450 5440 5434 5427 5416 5402 5386 5366 5347 5335 5323 5310 5297 5287 5276 5267 5257 5245 5234 5223 5213 5203 5194 5185 5178 5171 5163 5157 5151 5146 5141 5137 5135 5132 5130 5130 5132 5136 5142 5146 5152
5479 5468 5452 5443 5437 5432 5423 5408 5392 5370 5353 5340 5328 5316 5303 5291 5279 5266 5255 5246 5235 5225 5213 5204 5196 5190 5182 5175 5167 5161 5153 5146 5139 5133 5129 5126 5122 5118 5116 5116 5116 5120 5122 5129
5466 5456 5444 5435 5433 5422 5412 5400 5384 5364 5346 5331 5320 5308 5295 5283 5271 5259 5249 5238 5227 5217 5207 5201 5194 5188 5180 5173 5166 5160 5152 5144 5137 5131 5125 5122 5118 5113 5110 5107 5104 5103 5106 5109